User: anonymous   Login
Location: Houston
(29.7630°N, 95.3630°W)
Time: 21:55:07
(UTC-06:00)
Language:

Saudisat 1A - Orbit

View from above orbital plane
View from above orbital plane
View from above satellite
View from above satellite

Ground track
Ground track

The orbit data is extracted from the following two-line orbital elements,

1 26546U 00057B   16044.17457962  .00001210  00000-0  13881-3 0  9999
2 26546  64.5541  68.5856 0046587 285.0823  74.5134 14.90061803833635
Epoch (UTC): 13 February 2016 04:11:23
Eccentricity: 0.0046587
inclination: 64.5541°
perigee height: 565 km
apogee height: 630 km
right ascension of ascending node: 68.5856°
argument of perigee: 285.0823°
revolutions per day: 14.90061803
mean anomaly at epoch: 74.5134°
orbit number at epoch: 83363

The dashed part of the orbit path shows where the satellite is in the earth's shadow,  

DLR